Volver al catálogo

STARLINK-32630

ActivoComunicacionesVLEO
NORAD 62047·PAYLOAD·🇺🇸 United States

Lanzado Nov 21, 2024 desde Cape Canaveral Space Force Station

Loading…

Próximos Pases (próximas 24 horas)

TLE

ActualizadoSource: CelesTrak SupGP

Época: Sep 15, 2026, 03:40 UTC

1 62047C 24216R   26258.15326389 -.00026948  00000+0 -97596-3 0  2581
2 62047  42.9999 273.5793 0001260 267.0786 244.9785 15.27595898    13

Sigue STARLINK-32630 en tiempo real con AllMySat

Download on the App Store